User: anonymous   Login
Location: Unspecified
(0.0000°N, 0.0000°E)
Time: 06:29:36
(UTC+00:00)
Language:

OPTUS D1 - Orbit

View from above orbital plane
View from above orbital plane
View from above satellite
View from above satellite

Ground track
Ground track

The orbit data is extracted from the following two-line orbital elements,

1 29495U 06043B   21215.53294786 -.00000107  00000-0  00000-0 0  9996
2 29495   0.0235 293.5680 0003453 203.4765 167.1294  1.00272323 54285
Epoch (UTC): 03 August 2021 12:47:26
Eccentricity: 0.0003453
inclination: 0.0235°
perigee height: 35771 km
apogee height: 35800 km
right ascension of ascending node: 293.5680°
argument of perigee: 203.4765°
revolutions per day: 1.00272323
mean anomaly at epoch: 167.1294°
orbit number at epoch: 5428

The dashed part of the orbit path shows where the satellite is in the earth's shadow,  

DLR